KC7RJK-2 Weather Reports


Display with metric or nautical units.
time (UTC)temp
F
wind
direction
speed
MPH
gust
MPH
rain 1hr
in
rain 24hr
in
rain mn
in
humidity
%
barometer
mb
20170924031352 55 25 1.0 3.0 0.00 0.00 0.00 72 1017.9
20170924030352 56 25 0.0 2.0 0.00 0.00 0.00 68 1017.9
20170924025352 57 25 1.0 3.0 0.00 0.00 0.00 67 1017.9
20170924024352 57 25 2.0 3.0 0.00 0.00 0.00 65 1017.8
20170924023352 58 17 2.0 3.0 0.00 0.00 0.00 62 1017.8
20170924022352 59 1 2.0 3.0 0.00 0.00 0.00 61 1017.8
20170924021352 61 358 1.0 4.0 0.00 0.00 0.00 58 1017.8
20170924020352 62 355 2.0 4.0 0.00 0.00 0.00 57 1017.8
20170924015352 63 354 2.0 6.0 0.00 0.00 0.00 55 1017.7
20170924014352 64 17 3.0 6.0 0.00 0.00 0.00 54 1017.8
20170924013352 65 25 2.0 5.0 0.00 0.00 0.00 52 1017.7
20170924012352 66 49 2.0 6.0 0.00 0.00 0.00 51 1017.8
20170924011352 67 358 0.0 4.0 0.00 0.00 0.00 50 1017.9
20170924010352 67 3 3.0 5.0 0.00 0.00 0.00 48 1017.9
20170924005352 68 23 0.0 7.0 0.00 0.00 0.00 46 1017.7
20170924004352 68 309 3.0 8.0 0.00 0.00 0.00 47 1017.8
20170924003351 68 287 0.0 8.0 0.00 0.00 0.00 45 1017.8
20170924002352 69 321 3.0 5.0 0.00 0.00 0.00 42 1017.8
20170924001351 70 358 0.0 4.0 0.00 0.00 0.00 44 1017.8
20170924000352 70 2 0.0 6.0 0.00 0.00 0.00 44 1017.8
20170923235351 71 333 3.0 7.0 0.00 0.00 0.00 44 1018.0
20170923234352 71 337 0.0 4.0 0.00 0.00 0.00 41 1018.0
20170923233351 71 79 0.0 6.0 0.00 0.00 0.00 44 1018.0
20170923232351 71 42 5.0 6.0 0.00 0.00 0.00 44 1018.0
20170923231351 72 48 3.0 4.0 0.00 0.00 0.00 44 1018.1
20170923230351 71 79 0.0 4.0 0.00 0.00 0.00 42 1018.1
20170923225351 72 53 4.0 4.0 0.00 0.00 0.00 43 1018.2
20170923224351 72 34 3.0 5.0 0.00 0.00 0.00 46 1018.3
20170923223351 72 17 2.0 3.0 0.00 0.00 0.00 46 1018.2
20170923222351 71 360 0.0 7.0 0.00 0.00 0.00 50 1018.3
20170923221351 71 297 3.0 6.0 0.00 0.00 0.00 50 1018.3
20170923220351 70 309 3.0 6.0 0.00 0.00 0.00 51 1018.4
20170923215351 70 17 0.0 5.0 0.00 0.00 0.00 51 1018.3
20170923214351 69 58 0.0 4.0 0.00 0.00 0.00 53 1018.4
20170923213351 70 347 3.0 6.0 0.00 0.00 0.00 49 1018.5
20170923212351 69 23 0.0 3.0 0.00 0.00 0.00 53 1018.6
20170923211351 69 316 0.0 5.0 0.00 0.00 0.00 51 1018.7
20170923210351 69 307 0.0 4.0 0.00 0.00 0.00 53 1018.7
20170923205351 68 304 4.0 4.0 0.00 0.00 0.00 54 1018.8
20170923204351 68 250 3.0 4.0 0.00 0.00 0.00 53 1018.8
20170923203351 67 224 0.0 4.0 0.00 0.00 0.00 56 1018.8
20170923202351 66 177 0.0 2.0 0.00 0.00 0.00 56 1018.9
20170923201351 65 26 0.0 2.0 0.00 0.00 0.00 58 1019.0
20170923200351 65 210 0.0 0.0 0.00 0.00 0.00 57 1019.1
20170923195351 65 210 0.0 3.0 0.00 0.00 0.00 57 1019.2
20170923194351 64 210 2.0 4.0 0.00 0.00 0.00 58 1019.2
20170923193351 63 209 0.0 3.0 0.00 0.00 0.00 60 1019.3
20170923192351 63 210 2.0 3.0 0.00 0.00 0.00 63 1019.4
20170923191351 62 134 0.0 0.0 0.00 0.00 0.00 63 1019.5
20170923190351 61 134 0.0 3.0 0.00 0.00 0.00 64 1019.6
20170923185351 60 130 1.0 6.0 0.00 0.00 0.00 66 1019.7
20170923184351 60 116 0.0 5.0 0.00 0.00 0.00 66 1019.8
20170923183351 60 136 3.0 5.0 0.00 0.00 0.00 67 1019.9
20170923182351 60 136 2.0 3.0 0.00 0.00 0.00 69 1019.9
20170923181351 60 147 2.0 3.0 0.00 0.00 0.00 68 1019.8
20170923180351 59 142 2.0 7.0 0.00 0.00 0.00 72 1019.8
20170923175351 58 131 0.0 6.0 0.00 0.00 0.00 72 1019.8
20170923174351 58 140 0.0 7.0 0.00 0.00 0.00 72 1019.8
20170923173351 57 127 4.0 7.0 0.00 0.00 0.00 75 1019.7
20170923172351 57 150 1.0 3.0 0.00 0.00 0.00 78 1019.7
20170923171351 56 150 1.0 3.0 0.00 0.00 0.00 77 1019.7
20170923170351 55 181 2.0 7.0 0.00 0.00 0.00 80 1019.6
20170923165351 54 178 5.0 5.0 0.00 0.00 0.00 81 1019.7
20170923164350 53 170 0.0 6.0 0.00 0.00 0.00 82 1019.7
20170923163350 53 178 2.0 6.0 0.00 0.00 0.00 83 1019.7
20170923162351 52 155 3.0 7.0 0.00 0.00 0.00 83 1019.6
20170923161350 52 171 2.0 5.0 0.00 0.00 0.00 84 1019.7
20170923160350 52 176 5.0 6.0 0.00 0.00 0.00 87 1019.6
20170923155351 51 179 2.0 8.0 0.00 0.00 0.00 85 1019.4
20170923154350 51 160 4.0 8.0 0.00 0.00 0.00 86 1019.5
20170923153350 51 187 3.0 5.0 0.00 0.00 0.00 87 1019.5
20170923152350 51 178 0.0 7.0 0.00 0.00 0.00 88 1019.4
20170923151350 50 179 3.0 6.0 0.00 0.00 0.00 89 1019.3
20170923150350 50 159 2.0 5.0 0.00 0.00 0.00 89 1019.3
20170923145350 50 177 0.0 6.0 0.00 0.00 0.00 89 1019.3
20170923144350 50 183 3.0 8.0 0.00 0.00 0.00 88 1019.2
20170923143350 50 181 7.0 7.0 0.00 0.00 0.00 89 1019.1
20170923142350 50 179 2.0 10.0 0.00 0.00 0.00 89 1019.0
20170923141350 50 143 6.0 8.0 0.00 0.00 0.00 89 1018.9
20170923140350 50 178 3.0 7.0 0.00 0.00 0.00 89 1018.9
20170923135350 49 158 4.0 7.0 0.00 0.00 0.00 89 1018.8
20170923134350 49 181 2.0 5.0 0.00 0.00 0.00 90 1018.7
20170923133350 49 158 4.0 6.0 0.00 0.00 0.00 90 1018.7
20170923132350 49 183 2.0 7.0 0.00 0.00 0.00 90 1018.8
20170923131350 49 169 2.0 5.0 0.00 0.00 0.00 90 1018.8
20170923130350 49 182 3.0 5.0 0.00 0.00 0.00 91 1018.7
20170923125350 49 172 2.0 5.0 0.00 0.00 0.00 91 1018.5
20170923124350 49 179 2.0 3.0 0.00 0.00 0.00 91 1018.5
20170923123350 49 182 3.0 6.0 0.00 0.00 0.00 91 1018.3
20170923122350 49 181 3.0 6.0 0.00 0.00 0.00 91 1018.4
20170923121350 49 178 3.0 5.0 0.00 0.00 0.00 91 1018.2
20170923120350 49 166 3.0 8.0 0.00 0.00 0.00 91 1018.3
20170923115350 49 183 3.0 8.0 0.00 0.00 0.00 91 1018.3
20170923114350 49 150 5.0 7.0 0.00 0.00 0.00 91 1018.5
20170923113350 49 183 3.0 6.0 0.00 0.00 0.00 92 1018.4
20170923112350 48 193 3.0 8.0 0.00 0.00 0.00 92 1018.4
20170923111350 48 148 2.0 5.0 0.00 0.00 0.00 92 1018.4
20170923110350 48 109 2.0 5.0 0.00 0.00 0.00 92 1018.5
20170923105350 49 183 3.0 6.0 0.00 0.00 0.00 93 1018.5
20170923104350 48 150 4.0 4.0 0.00 0.00 0.00 93 1018.3
20170923103350 48 177 3.0 4.0 0.00 0.00 0.00 93 1018.5
20170923102350 48 175 3.0 5.0 0.00 0.00 0.00 93 1018.4
20170923101350 48 181 1.0 5.0 0.00 0.00 0.00 93 1018.6
20170923100349 48 183 3.0 5.0 0.00 0.00 0.00 92 1018.5
20170923095349 49 189 3.0 5.0 0.00 0.00 0.00 91 1018.5
20170923094350 49 167 3.0 5.0 0.00 0.00 0.00 92 1018.6
20170923093349 50 183 3.0 6.0 0.00 0.00 0.00 91 1018.6
20170923092349 50 151 3.0 5.0 0.00 0.00 0.00 91 1018.5
20170923091350 50 150 2.0 10.0 0.00 0.00 0.00 91 1018.4
20170923090349 50 140 3.0 9.0 0.00 0.00 0.00 91 1018.4
20170923085349 50 146 3.0 8.0 0.00 0.00 0.00 91 1018.5
20170923084349 50 171 3.0 8.0 0.00 0.00 0.00 91 1018.3
20170923083349 50 160 3.0 10.0 0.00 0.00 0.00 91 1018.3
20170923082349 50 165 6.0 6.0 0.00 0.00 0.00 92 1018.3
20170923081349 50 139 4.0 7.0 0.00 0.00 0.00 91 1018.6
20170923080349 50 171 2.0 6.0 0.00 0.00 0.00 91 1018.6
20170923075350 50 185 3.0 8.0 0.00 0.00 0.00 91 1018.6
20170923074349 51 151 6.0 8.0 0.00 0.00 0.00 90 1018.7
20170923073350 51 143 3.0 10.0 0.00 0.00 0.00 90 1018.5
20170923072349 51 142 3.0 8.0 0.00 0.00 0.00 91 1018.2
20170923071349 51 164 3.0 8.0 0.00 0.00 0.00 91 1018.3
20170923070349 51 137 3.0 8.0 0.00 0.00 0.00 92 1018.3
20170923065349 51 127 3.0 7.0 0.00 0.00 0.00 92 1018.2
20170923064349 50 141 5.0 8.0 0.00 0.00 0.00 93 1018.3
20170923063349 50 140 3.0 8.0 0.00 0.00 0.00 93 1018.3
20170923062349 50 153 3.0 6.0 0.00 0.00 0.00 93 1018.2
20170923061349 50 138 4.0 7.0 0.00 0.00 0.00 93 1018.2
20170923060349 49 144 2.0 4.0 0.00 0.00 0.00 93 1018.2
20170923055349 49 165 2.0 4.0 0.00 0.00 0.00 93 1018.3
20170923054349 50 146 2.0 4.0 0.00 0.00 0.00 93 1018.2
20170923053349 50 140 3.0 5.0 0.00 0.00 0.00 92 1018.2
20170923052349 50 146 3.0 3.0 0.00 0.00 0.00 92 1018.1
20170923051349 50 134 1.0 3.0 0.00 0.00 0.00 91 1018.1
20170923050349 51 127 3.0 3.0 0.00 0.00 0.00 92 1018.1
20170923045349 51 129 1.0 3.0 0.00 0.00 0.00 91 1018.2
20170923044349 51 128 0.0 0.0 0.00 0.00 0.00 90 1018.1
20170923043349 52 128 0.0 2.0 0.00 0.00 0.00 89 1018.2
20170923042349 52 129 0.0 4.0 0.00 0.00 0.00 88 1018.1
20170923041349 52 101 0.0 3.0 0.00 0.00 0.00 88 1018.0
20170923040349 52 101 0.0 0.0 0.00 0.00 0.00 87 1017.9
20170923035349 53 101 0.0 2.0 0.00 0.00 0.00 87 1018.0
20170923034349 53 101 0.0 0.0 0.00 0.00 0.00 86 1017.9
20170923033349 54 102 0.0 0.0 0.00 0.00 0.00 85 1017.9
20170923032349 54 102 0.0 0.0 0.00 0.00 0.00 85 1017.8